QPF
0.00 0.00 0.00 0.00 0.00 0.00 0.00 0.00 0.00 0.00 0.00 0.00 0.01 0.01 0.01 0.01 0.01 0.02 0.02 0.02 0.01 0.01 0.03 0.03 0.02 0.02 0.03 0.03 0.03 0.02 0.04 0.05 0.07 0.07 0.04 0.04 0.04 0.06 0.08 0.09 0.07 0.06 0.06 0.07
0.00 0.00 0.00 0.00 0.00 0.00 0.00 0.00 0.00 0.00 0.01 0.01 0.01 0.02 0.02 0.02 0.01 0.01 0.01 0.02 0.02 0.02 0.03 0.04 0.04 0.04 0.04 0.03 0.03 0.03 0.05 0.07 0.07 0.06 0.04 0.03 0.03 0.04 0.05 0.08 0.10 0.08 0.07 0.07
0.00 0.00 0.00 0.00 0.00 0.00 0.00 0.00 0.00 0.00 0.01 0.01 0.02 0.03 0.03 0.02 0.02 0.02 0.02 0.02 0.02 0.03 0.04 0.05 0.07 0.06 0.05 0.04 0.03 0.03 0.04 0.05 0.05 0.04 0.03 0.04 0.04 0.03 0.03 0.04 0.06 0.07 0.07 0.08
0.00 0.00 0.00 0.00 0.00 0.00 0.00 0.00 0.00 0.01 0.02 0.02 0.03 0.03 0.04 0.03 0.03 0.02 0.04 0.05 0.05 0.05 0.06 0.07 0.09 0.11 0.09 0.05 0.03 0.04 0.05 0.06 0.05 0.05 0.05 0.05 0.03 0.03 0.03 0.04 0.04 0.05 0.06 0.07
0.00 0.00 0.00 0.00 0.00 0.00 0.00 0.00 0.00 0.01 0.02 0.02 0.02 0.03 0.05 0.03 0.02 0.02 0.05 0.10 0.11 0.11 0.10 0.10 0.11 0.13 0.13 0.08 0.07 0.08 0.05 0.04 0.03 0.03 0.04 0.04 0.03 0.02 0.02 0.02 0.03 0.03 0.04 0.05
0.00 0.00 0.00 0.00 0.00 0.00 0.00 0.01 0.02 0.03 0.04 0.04 0.03 0.04 0.05 0.05 0.05 0.05 0.07 0.08 0.11 0.09 0.07 0.06 0.07 0.08 0.09 0.11 0.08 0.07 0.06 0.03 0.02 0.03 0.05 0.06 0.05 0.05 0.04 0.04 0.04 0.04 0.04 0.05
0.00 0.00 0.00 0.00 0.00 0.00 0.01 0.02 0.02 0.02 0.02 0.03 0.07 0.08 0.06 0.04 0.03 0.02 0.03 0.05 0.06 0.07 0.08 0.08 0.07 0.08 0.08 0.06 0.04 0.03 0.03 0.03 0.04 0.06 0.08 0.09 0.07 0.05 0.05 0.06 0.06 0.05 0.05 0.06
0.01 0.01 0.01 0.01 0.01 0.01 0.02 0.01 0.01 0.01 0.02 0.02 0.02 0.01 0.02 0.03 0.03 0.02 0.02 0.02 0.03 0.04 0.06 0.05 0.06 0.06 0.05 0.03 0.04 0.05 0.06 0.07 0.07 0.08 0.07 0.07 0.08 0.08 0.08 0.07 0.08 0.08 0.08 0.06
0.02 0.02 0.02 0.02 0.03 0.03 0.03 0.03 0.03 0.02 0.02 0.02 0.01 0.01 0.01 0.01 0.01 0.01 0.02 0.03 0.02 0.02 0.02 0.02 0.04 0.06 0.07 0.05 0.07 0.08 0.08 0.07 0.05 0.04 0.06 0.08 0.10 0.10 0.09 0.09 0.09 0.08 0.08 0.06
0.01 0.02 0.02 0.03 0.04 0.04 0.04 0.04 0.04 0.03 0.03 0.02 0.02 0.01 0.01 0.01 0.01 0.01 0.01 0.01 0.02 0.02 0.03 0.04 0.04 0.04 0.05 0.07 0.09 0.10 0.09 0.07 0.07 0.05 0.06 0.07 0.09 0.10 0.08 0.07 0.05 0.04 0.04 0.04
0.01 0.02 0.02 0.02 0.03 0.04 0.04 0.04 0.02 0.01 0.01 0.01 0.01 0.01 0.01 0.01 0.02 0.02 0.01 0.02 0.03 0.05 0.06 0.05 0.04 0.04 0.05 0.07 0.07 0.07 0.07 0.07 0.08 0.07 0.05 0.05 0.06 0.07 0.06 0.04 0.03 0.02 0.02 0.02
0.02 0.02 0.02 0.02 0.01 0.02 0.03 0.04 0.04 0.03 0.02 0.02 0.02 0.01 0.01 0.01 0.02 0.02 0.02 0.03 0.06 0.06 0.05 0.05 0.05 0.04 0.04 0.05 0.05 0.06 0.06 0.06 0.06 0.05 0.04 0.05 0.05 0.04 0.03 0.03 0.02 0.02 0.02 0.03
0.03 0.03 0.03 0.03 0.02 0.02 0.03 0.04 0.05 0.06 0.05 0.03 0.03 0.02 0.01 0.01 0.01 0.01 0.02 0.02 0.04 0.04 0.04 0.05 0.06 0.04 0.04 0.04 0.04 0.06 0.05 0.05 0.04 0.04 0.04 0.03 0.04 0.04 0.03 0.02 0.01 0.02 0.03 0.03
0.04 0.04 0.04 0.04 0.04 0.03 0.03 0.04 0.03 0.05 0.06 0.06 0.04 0.03 0.02 0.02 0.02 0.02 0.02 0.02 0.02 0.02 0.03 0.04 0.04 0.03 0.04 0.04 0.03 0.03 0.03 0.03 0.04 0.04 0.03 0.03 0.03 0.03 0.02 0.02 0.02 0.02 0.02 0.03
0.05 0.04 0.04 0.03 0.04 0.03 0.03 0.02 0.02 0.03 0.04 0.05 0.05 0.04 0.03 0.04 0.04 0.03 0.03 0.02 0.01 0.01 0.02 0.03 0.03 0.02 0.03 0.03 0.03 0.02 0.03 0.02 0.03 0.03 0.04 0.04 0.03 0.03 0.02 0.02 0.02 0.03 0.04 0.04
0.03 0.03 0.03 0.02 0.03 0.04 0.05 0.05 0.04 0.03 0.03 0.02 0.02 0.02 0.03 0.04 0.04 0.03 0.02 0.02 0.01 0.01 0.02 0.02 0.02 0.02 0.03 0.04 0.03 0.02 0.02 0.03 0.03 0.03 0.03 0.03 0.03 0.03 0.03 0.03 0.02 0.03 0.03 0.04
0.03 0.04 0.04 0.03 0.03 0.03 0.02 0.01 0.02 0.03 0.03 0.02 0.02 0.02 0.03 0.03 0.03 0.03 0.02 0.02 0.02 0.02 0.02 0.02 0.02 0.02 0.02 0.02 0.02 0.02 0.02 0.03 0.04 0.04 0.04 0.04 0.04 0.03 0.03 0.04 0.04 0.04 0.05 0.06
0.03 0.03 0.05 0.05 0.04 0.04 0.04 0.02 0.02 0.02 0.04 0.04 0.04 0.03 0.04 0.05 0.06 0.05 0.03 0.03 0.02 0.03 0.04 0.03 0.02 0.02 0.02 0.01 0.02 0.02 0.02 0.03 0.03 0.03 0.04 0.04 0.05 0.05 0.06 0.06 0.07 0.06 0.06 0.06
0.06 0.03 0.04 0.05 0.04 0.04 0.04 0.03 0.03 0.02 0.03 0.05 0.07 0.09 0.07 0.06 0.06 0.06 0.05 0.03 0.02 0.02 0.03 0.03 0.02 0.02 0.02 0.02 0.02 0.02 0.02 0.03 0.04 0.05 0.05 0.06 0.07 0.07 0.08 0.08 0.08 0.07 0.05 0.03
0.07 0.07 0.05 0.05 0.04 0.03 0.03 0.03 0.03 0.03 0.02 0.03 0.04 0.07 0.08 0.07 0.06 0.05 0.04 0.02 0.02 0.02 0.03 0.03 0.02 0.02 0.02 0.02 0.04 0.04 0.05 0.05 0.05 0.04 0.04 0.03 0.03 0.03 0.03 0.04 0.05 0.05 0.04 0.03
0.04 0.05 0.07 0.07 0.05 0.04 0.04 0.04 0.04 0.04 0.04 0.04 0.05 0.05 0.04 0.05 0.06 0.07 0.05 0.03 0.03 0.03 0.04 0.04 0.03 0.03 0.02 0.02 0.04 0.05 0.05 0.05 0.04 0.05 0.05 0.04 0.03 0.04 0.04 0.04 0.04 0.05 0.04 0.03
0.02 0.03 0.03 0.04 0.05 0.05 0.04 0.03 0.04 0.04 0.04 0.05 0.05 0.04 0.04 0.05 0.05 0.05 0.04 0.03 0.03 0.05 0.05 0.04 0.03 0.03 0.02 0.03 0.04 0.04 0.06 0.08 0.08 0.07 0.07 0.07 0.08 0.08 0.07 0.06 0.05 0.05 0.05 0.04
0.04 0.03 0.02 0.02 0.02 0.03 0.03 0.03 0.03 0.04 0.05 0.05 0.05 0.05 0.06 0.04 0.03 0.04 0.04 0.03 0.03 0.04 0.04 0.04 0.04 0.04 0.03 0.02 0.02 0.02 0.03 0.04 0.05 0.05 0.05 0.05 0.06 0.07 0.08 0.08 0.07 0.07 0.07 0.07
0.04 0.03 0.02 0.02 0.02 0.02 0.03 0.03 0.03 0.03 0.04 0.05 0.05 0.04 0.04 0.04 0.03 0.03 0.03 0.04 0.04 0.05 0.04 0.04 0.04 0.04 0.03 0.02 0.02 0.02 0.03 0.03 0.03 0.03 0.05 0.07 0.09 0.09 0.09 0.09 0.08 0.09 0.10 0.10
0.03 0.02 0.01 0.01 0.01 0.01 0.02 0.01 0.01 0.01 0.02 0.02 0.01 0.02 0.02 0.03 0.03 0.03 0.03 0.03 0.05 0.05 0.04 0.05 0.04 0.03 0.03 0.03 0.03 0.03 0.03 0.02 0.03 0.04 0.05 0.06 0.07 0.07 0.07 0.08 0.08 0.08 0.08 0.09
0.01 0.01 0.01 0.01 0.01 0.01 0.01 0.01 0.01 0.02 0.02 0.02 0.02 0.01 0.02 0.02 0.03 0.03 0.03 0.03 0.04 0.05 0.05 0.06 0.05 0.04 0.03 0.02 0.02 0.02 0.02 0.03 0.04 0.05 0.05 0.05 0.04 0.04 0.04 0.05 0.06 0.06 0.07 0.08
0.01 0.02 0.02 0.01 0.01 0.01 0.01 0.02 0.02 0.03 0.04 0.04 0.03 0.03 0.03 0.03 0.03 0.03 0.04 0.05 0.05 0.06 0.06 0.07 0.05 0.03 0.03 0.02 0.02 0.02 0.02 0.03 0.03 0.04 0.04 0.04 0.04 0.04 0.04 0.05 0.05 0.05 0.05 0.04
MSLP
1007.75 1008.16 1008.51 1008.82 1009.07 1009.26 1009.35 1009.31 1009.14 1008.81 1008.36 1007.82 1007.25 1006.72 1006.27 1005.95 1005.79 1005.77 1005.87 1006.05 1006.27 1006.49 1006.69 1006.86 1007.01 1007.18 1007.40 1007.68 1008.05 1008.51 1009.04 1009.60 1010.16 1010.69 1011.14 1011.51 1011.80 1012.01 1012.16 1012.28 1012.40 1012.52 1012.66 1012.83
1007.71 1008.08 1008.29 1008.39 1008.40 1008.33 1008.19 1008.00 1007.75 1007.46 1007.13 1006.79 1006.46 1006.16 1005.91 1005.74 1005.63 1005.59 1005.59 1005.63 1005.68 1005.73 1005.79 1005.87 1005.99 1006.17 1006.43 1006.79 1007.24 1007.77 1008.34 1008.94 1009.51 1010.04 1010.49 1010.86 1011.16 1011.39 1011.58 1011.75 1011.92 1012.10 1012.30 1012.51
1007.77 1008.08 1008.18 1008.12 1007.93 1007.66 1007.35 1007.04 1006.74 1006.48 1006.25 1006.07 1005.92 1005.81 1005.71 1005.63 1005.56 1005.47 1005.38 1005.27 1005.17 1005.08 1005.02 1005.02 1005.11 1005.30 1005.60 1006.01 1006.52 1007.10 1007.71 1008.31 1008.89 1009.40 1009.85 1010.22 1010.53 1010.80 1011.04 1011.27 1011.50 1011.74 1011.98 1012.23
1007.89 1008.15 1008.16 1007.99 1007.66 1007.26 1006.85 1006.46 1006.14 1005.90 1005.75 1005.68 1005.66 1005.67 1005.68 1005.65 1005.58 1005.44 1005.26 1005.04 1004.82 1004.61 1004.47 1004.41 1004.48 1004.68 1005.00 1005.45 1005.99 1006.59 1007.20 1007.80 1008.35 1008.85 1009.28 1009.65 1009.97 1010.27 1010.55 1010.84 1011.12 1011.41 1011.70 1011.97
1008.01 1008.20 1008.16 1007.91 1007.52 1007.05 1006.58 1006.17 1005.85 1005.64 1005.55 1005.55 1005.62 1005.70 1005.75 1005.75 1005.67 1005.50 1005.25 1004.95 1004.64 1004.37 1004.18 1004.10 1004.16 1004.36 1004.70 1005.16 1005.70 1006.28 1006.87 1007.43 1007.94 1008.40 1008.80 1009.16 1009.49 1009.81 1010.12 1010.45 1010.77 1011.10 1011.40 1011.68
1008.03 1008.15 1008.06 1007.78 1007.37 1006.90 1006.44 1006.04 1005.75 1005.58 1005.53 1005.59 1005.69 1005.81 1005.88 1005.88 1005.79 1005.59 1005.32 1004.99 1004.65 1004.36 1004.16 1004.08 1004.14 1004.35 1004.69 1005.13 1005.65 1006.19 1006.72 1007.22 1007.67 1008.07 1008.43 1008.76 1009.07 1009.39 1009.72 1010.06 1010.41 1010.74 1011.05 1011.31
1007.87 1007.92 1007.79 1007.51 1007.13 1006.70 1006.29 1005.95 1005.71 1005.59 1005.58 1005.66 1005.79 1005.91 1005.99 1006.00 1005.90 1005.71 1005.43 1005.11 1004.80 1004.53 1004.35 1004.29 1004.37 1004.58 1004.91 1005.32 1005.78 1006.26 1006.71 1007.13 1007.50 1007.83 1008.13 1008.41 1008.70 1009.00 1009.32 1009.65 1009.98 1010.30 1010.58 1010.82
1007.48 1007.46 1007.31 1007.06 1006.74 1006.39 1006.06 1005.80 1005.63 1005.57 1005.60 1005.70 1005.83 1005.96 1006.04 1006.05 1005.97 1005.80 1005.57 1005.30 1005.04 1004.82 1004.70 1004.68 1004.77 1004.98 1005.28 1005.64 1006.03 1006.42 1006.78 1007.10 1007.39 1007.64 1007.87 1008.10 1008.34 1008.60 1008.89 1009.18 1009.47 1009.75 1009.99 1010.19
1006.89 1006.81 1006.67 1006.46 1006.22 1005.97 1005.76 1005.60 1005.51 1005.50 1005.57 1005.68 1005.82 1005.94 1006.02 1006.04 1005.99 1005.87 1005.70 1005.50 1005.32 1005.19 1005.12 1005.14 1005.25 1005.44 1005.70 1005.99 1006.30 1006.59 1006.85 1007.08 1007.27 1007.45 1007.61 1007.78 1007.97 1008.18 1008.41 1008.65 1008.89 1009.11 1009.29 1009.44
1006.17 1006.06 1005.94 1005.80 1005.66 1005.53 1005.43 1005.37 1005.37 1005.41 1005.51 1005.63 1005.76 1005.88 1005.96 1006.00 1005.98 1005.92 1005.83 1005.72 1005.63 1005.57 1005.56 1005.61 1005.73 1005.89 1006.09 1006.30 1006.51 1006.70 1006.87 1007.00 1007.12 1007.22 1007.33 1007.45 1007.58 1007.74 1007.91 1008.09 1008.26 1008.41 1008.53 1008.63
1005.41 1005.31 1005.23 1005.18 1005.15 1005.14 1005.16 1005.20 1005.27 1005.37 1005.48 1005.60 1005.73 1005.83 1005.92 1005.98 1006.00 1006.00 1005.98 1005.96 1005.94 1005.95 1005.99 1006.05 1006.15 1006.27 1006.39 1006.51 1006.62 1006.72 1006.79 1006.85 1006.90 1006.95 1007.01 1007.09 1007.19 1007.30 1007.42 1007.53 1007.63 1007.71 1007.77 1007.81
1004.70 1004.65 1004.66 1004.71 1004.79 1004.90 1005.03 1005.16 1005.29 1005.42 1005.54 1005.66 1005.76 1005.86 1005.95 1006.02 1006.08 1006.14 1006.18 1006.23 1006.28 1006.33 1006.38 1006.44 1006.50 1006.55 1006.59 1006.61 1006.62 1006.62 1006.61 1006.60 1006.60 1006.62 1006.66 1006.72 1006.79 1006.87 1006.94 1007.01 1007.05 1007.06 1007.06 1007.04
1004.12 1004.15 1004.25 1004.42 1004.62 1004.84 1005.06 1005.26 1005.44 1005.59 1005.71 1005.82 1005.91 1005.99 1006.08 1006.16 1006.26 1006.35 1006.45 1006.55 1006.64 1006.71 1006.76 1006.79 1006.78 1006.75 1006.69 1006.61 1006.52 1006.43 1006.35 1006.29 1006.25 1006.25 1006.28 1006.33 1006.39 1006.46 1006.50 1006.52 1006.52 1006.48 1006.41 1006.34
1003.67 1003.80 1004.03 1004.31 1004.63 1004.95 1005.24 1005.50 1005.71 1005.87 1005.98 1006.07 1006.15 1006.22 1006.30 1006.40 1006.52 1006.65 1006.79 1006.92 1007.02 1007.10 1007.12 1007.09 1007.01 1006.89 1006.72 1006.54 1006.35 1006.17 1006.03 1005.92 1005.87 1005.86 1005.88 1005.93 1006.00 1006.05 1006.08 1006.07 1006.02 1005.93 1005.82 1005.70
1003.34 1003.60 1003.94 1004.34 1004.75 1005.15 1005.51 1005.81 1006.04 1006.20 1006.31 1006.38 1006.44 1006.51 1006.60 1006.71 1006.85 1007.01 1007.17 1007.32 1007.42 1007.47 1007.46 1007.37 1007.21 1006.98 1006.72 1006.43 1006.15 1005.90 1005.69 1005.54 1005.46 1005.44 1005.47 1005.52 1005.58 1005.63 1005.64 1005.61 1005.52 1005.40 1005.24 1005.07
1003.11 1003.48 1003.94 1004.43 1004.93 1005.40 1005.80 1006.12 1006.36 1006.53 1006.63 1006.70 1006.75 1006.82 1006.91 1007.04 1007.20 1007.38 1007.56 1007.71 1007.81 1007.83 1007.77 1007.62 1007.37 1007.06 1006.70 1006.32 1005.96 1005.63 1005.37 1005.18 1005.07 1005.03 1005.04 1005.09 1005.14 1005.17 1005.16 1005.10 1004.99 1004.83 1004.64 1004.43
1002.96 1003.43 1003.98 1004.55 1005.11 1005.62 1006.05 1006.39 1006.63 1006.80 1006.90 1006.96 1007.03 1007.10 1007.21 1007.36 1007.54 1007.74 1007.93 1008.08 1008.16 1008.16 1008.05 1007.84 1007.53 1007.14 1006.70 1006.25 1005.81 1005.42 1005.10 1004.87 1004.72 1004.65 1004.64 1004.66 1004.69 1004.69 1004.65 1004.56 1004.42 1004.23 1004.01 1003.78
1002.89 1003.44 1004.05 1004.67 1005.27 1005.79 1006.23 1006.58 1006.82 1006.99 1007.10 1007.17 1007.25 1007.34 1007.48 1007.65 1007.85 1008.06 1008.26 1008.40 1008.48 1008.45 1008.31 1008.05 1007.69 1007.25 1006.75 1006.24 1005.75 1005.31 1004.95 1004.67 1004.48 1004.36 1004.31 1004.28 1004.26 1004.22 1004.15 1004.02 1003.85 1003.64 1003.40 1003.16
1002.92 1003.53 1004.17 1004.81 1005.41 1005.93 1006.37 1006.71 1006.95 1007.12 1007.24 1007.33 1007.43 1007.55 1007.71 1007.90 1008.12 1008.34 1008.54 1008.69 1008.75 1008.71 1008.54 1008.26 1007.88 1007.41 1006.89 1006.35 1005.83 1005.35 1004.95 1004.63 1004.39 1004.22 1004.10 1004.02 1003.94 1003.85 1003.73 1003.57 1003.37 1003.14 1002.90 1002.67
1003.09 1003.71 1004.36 1004.99 1005.57 1006.07 1006.49 1006.82 1007.06 1007.24 1007.37 1007.48 1007.61 1007.76 1007.94 1008.15 1008.38 1008.61 1008.81 1008.95 1009.01 1008.96 1008.79 1008.51 1008.12 1007.65 1007.13 1006.59 1006.06 1005.58 1005.15 1004.79 1004.50 1004.28 1004.10 1003.95 1003.81 1003.66 1003.49 1003.30 1003.08 1002.86 1002.63 1002.43
1003.41 1004.02 1004.64 1005.23 1005.78 1006.25 1006.64 1006.95 1007.19 1007.37 1007.52 1007.66 1007.81 1007.98 1008.18 1008.41 1008.65 1008.88 1009.08 1009.22 1009.27 1009.22 1009.07 1008.80 1008.43 1007.99 1007.50 1006.98 1006.47 1005.99 1005.55 1005.17 1004.85 1004.57 1004.34 1004.13 1003.93 1003.73 1003.52 1003.30 1003.08 1002.86 1002.67 1002.52
1003.87 1004.44 1005.01 1005.56 1006.05 1006.47 1006.83 1007.12 1007.35 1007.54 1007.71 1007.87 1008.05 1008.24 1008.46 1008.70 1008.94 1009.17 1009.37 1009.50 1009.55 1009.51 1009.37 1009.13 1008.81 1008.41 1007.96 1007.49 1007.02 1006.56 1006.14 1005.75 1005.40 1005.10 1004.82 1004.56 1004.31 1004.07 1003.84 1003.61 1003.40 1003.22 1003.08 1002.98
1004.43 1004.95 1005.46 1005.94 1006.36 1006.74 1007.06 1007.33 1007.55 1007.75 1007.94 1008.13 1008.32 1008.54 1008.77 1009.01 1009.25 1009.47 1009.65 1009.78 1009.83 1009.80 1009.69 1009.49 1009.21 1008.87 1008.49 1008.07 1007.65 1007.24 1006.84 1006.46 1006.11 1005.79 1005.48 1005.20 1004.92 1004.67 1004.43 1004.21 1004.03 1003.89 1003.81 1003.78
1005.03 1005.49 1005.93 1006.33 1006.70 1007.02 1007.30 1007.55 1007.77 1007.98 1008.18 1008.39 1008.61 1008.84 1009.07 1009.31 1009.54 1009.75 1009.91 1010.03 1010.08 1010.06 1009.97 1009.81 1009.58 1009.31 1008.99 1008.64 1008.28 1007.92 1007.56 1007.21 1006.87 1006.55 1006.24 1005.95 1005.67 1005.42 1005.20 1005.01 1004.87 1004.78 1004.76 1004.80
1005.63 1006.02 1006.38 1006.71 1007.01 1007.28 1007.53 1007.76 1007.98 1008.19 1008.41 1008.63 1008.86 1009.10 1009.34 1009.57 1009.78 1009.96 1010.11 1010.21 1010.26 1010.24 1010.17 1010.05 1009.87 1009.65 1009.39 1009.11 1008.81 1008.51 1008.19 1007.88 1007.57 1007.27 1006.97 1006.70 1006.44 1006.21 1006.02 1005.87 1005.78 1005.75 1005.78 1005.88
1006.18 1006.50 1006.78 1007.04 1007.29 1007.51 1007.73 1007.94 1008.15 1008.37 1008.60 1008.83 1009.06 1009.30 1009.52 1009.74 1009.92 1010.08 1010.20 1010.28 1010.31 1010.30 1010.24 1010.13 1009.99 1009.82 1009.62 1009.40 1009.16 1008.90 1008.64 1008.37 1008.09 1007.82 1007.56 1007.31 1007.09 1006.90 1006.75 1006.65 1006.61 1006.63 1006.71 1006.85
1006.66 1006.91 1007.13 1007.33 1007.51 1007.70 1007.89 1008.08 1008.29 1008.50 1008.73 1008.96 1009.19 1009.41 1009.62 1009.81 1009.96 1010.08 1010.17 1010.22 1010.22 1010.19 1010.13 1010.04 1009.92 1009.78 1009.62 1009.44 1009.25 1009.04 1008.82 1008.60 1008.37 1008.14 1007.91 1007.71 1007.53 1007.38 1007.28 1007.23 1007.23 1007.29 1007.41 1007.57
Thickness
5766 5778 5783 5783 5786 5789 5779 5770 5758 5763 5766 5777 5786 5789 5789 5789 5787 5785 5782 5779 5778 5776 5775 5774 5773 5771 5770 5768 5767 5765 5762 5759 5756 5754 5754 5752 5750 5749 5748 5747 5745 5743 5741 5739
5758 5773 5776 5775 5782 5785 5782 5779 5773 5770 5767 5785 5788 5786 5783 5780 5780 5776 5775 5774 5772 5771 5768 5766 5765 5762 5761 5761 5761 5759 5756 5754 5753 5750 5748 5746 5745 5743 5741 5740 5739 5737 5735 5733
5733 5753 5758 5750 5770 5774 5772 5775 5772 5761 5767 5778 5776 5775 5775 5775 5775 5771 5770 5768 5766 5765 5763 5761 5759 5758 5753 5753 5754 5752 5750 5747 5745 5743 5741 5740 5739 5737 5734 5733 5731 5729 5728 5727
5721 5733 5723 5748 5776 5778 5769 5767 5773 5771 5772 5774 5774 5773 5774 5775 5771 5767 5765 5763 5761 5760 5758 5755 5754 5752 5749 5748 5746 5744 5741 5739 5738 5736 5734 5733 5731 5729 5727 5726 5723 5721 5720 5719
5706 5708 5722 5748 5765 5767 5757 5749 5765 5764 5764 5765 5768 5764 5760 5766 5767 5765 5763 5759 5757 5755 5753 5750 5748 5744 5741 5741 5738 5735 5732 5731 5731 5730 5728 5725 5723 5722 5720 5718 5716 5714 5713 5712
5702 5703 5704 5732 5758 5769 5755 5733 5756 5759 5756 5756 5756 5739 5743 5757 5759 5757 5756 5753 5750 5749 5746 5742 5740 5737 5733 5730 5727 5726 5726 5724 5725 5724 5721 5719 5716 5714 5712 5710 5708 5707 5705 5704
5697 5696 5708 5736 5753 5756 5724 5723 5747 5751 5751 5748 5744 5743 5747 5750 5749 5748 5748 5746 5743 5740 5736 5734 5732 5729 5724 5721 5719 5721 5721 5719 5718 5717 5715 5713 5710 5707 5705 5702 5700 5698 5696 5695
5687 5686 5697 5733 5737 5727 5723 5736 5740 5741 5743 5741 5740 5741 5741 5741 5740 5738 5736 5735 5734 5730 5726 5725 5723 5720 5715 5713 5714 5715 5714 5711 5710 5709 5708 5707 5702 5700 5697 5694 5691 5688 5685 5683
5689 5691 5710 5722 5725 5728 5730 5729 5731 5732 5734 5733 5732 5731 5730 5729 5728 5727 5726 5724 5723 5721 5717 5715 5714 5711 5707 5707 5707 5706 5704 5702 5701 5701 5699 5698 5694 5691 5688 5685 5682 5679 5676 5674
5686 5694 5704 5711 5717 5721 5723 5723 5725 5727 5726 5725 5722 5721 5720 5718 5716 5715 5714 5713 5712 5710 5707 5704 5703 5702 5700 5700 5699 5697 5693 5692 5691 5690 5689 5688 5685 5683 5680 5676 5673 5671 5668 5665
5677 5688 5694 5700 5705 5709 5713 5715 5716 5718 5718 5716 5714 5710 5710 5708 5706 5704 5703 5702 5700 5698 5696 5694 5694 5693 5693 5692 5691 5688 5686 5684 5682 5681 5680 5678 5676 5674 5672 5670 5668 5665 5662 5659
5669 5679 5681 5688 5698 5702 5702 5703 5705 5705 5705 5706 5704 5701 5699 5697 5696 5694 5691 5690 5688 5688 5686 5686 5685 5684 5684 5684 5683 5680 5677 5676 5674 5673 5672 5670 5667 5664 5664 5662 5660 5658 5656 5652
5676 5682 5683 5688 5691 5694 5694 5695 5696 5695 5693 5692 5692 5692 5690 5688 5686 5684 5681 5680 5678 5677 5676 5676 5675 5675 5675 5675 5675 5672 5669 5668 5667 5665 5664 5662 5659 5655 5652 5651 5649 5648 5646 5644
5676 5678 5675 5678 5679 5684 5686 5687 5686 5685 5684 5683 5681 5681 5680 5678 5675 5673 5671 5671 5670 5669 5667 5666 5666 5666 5666 5666 5665 5664 5662 5661 5659 5658 5656 5654 5652 5649 5646 5643 5640 5638 5637 5636
5669 5671 5669 5671 5672 5674 5675 5676 5674 5671 5672 5672 5671 5670 5668 5666 5665 5664 5663 5662 5660 5659 5658 5657 5656 5655 5657 5657 5655 5654 5653 5652 5652 5650 5649 5647 5645 5642 5640 5637 5634 5631 5629 5627
5661 5663 5663 5662 5661 5662 5663 5664 5662 5661 5661 5661 5660 5658 5658 5657 5656 5655 5654 5652 5650 5648 5648 5647 5646 5647 5649 5648 5647 5646 5646 5647 5645 5642 5640 5638 5636 5635 5632 5629 5626 5624 5621 5620
5651 5649 5650 5650 5651 5652 5654 5654 5653 5652 5652 5651 5650 5649 5649 5647 5646 5644 5643 5643 5642 5641 5640 5639 5638 5639 5640 5640 5639 5638 5638 5638 5638 5635 5632 5630 5629 5627 5625 5622 5620 5617 5615 5614
5645 5644 5644 5644 5643 5643 5644 5645 5644 5643 5642 5642 5643 5642 5639 5637 5635 5635 5635 5634 5633 5632 5632 5632 5633 5633 5632 5632 5631 5630 5629 5629 5627 5626 5624 5622 5621 5620 5618 5616 5614 5612 5608 5607
5638 5637 5636 5637 5637 5636 5635 5635 5636 5636 5636 5635 5634 5632 5630 5629 5628 5627 5626 5624 5623 5623 5624 5626 5626 5625 5624 5623 5623 5622 5621 5620 5619 5617 5616 5615 5614 5612 5610 5609 5607 5605 5602 5600
5629 5630 5630 5630 5631 5629 5628 5628 5629 5628 5628 5627 5625 5624 5621 5620 5619 5618 5617 5616 5616 5617 5619 5619 5618 5617 5616 5615 5615 5614 5612 5611 5610 5609 5608 5606 5605 5604 5603 5602 5600 5598 5595 5593
5621 5621 5621 5621 5622 5622 5623 5622 5621 5621 5621 5620 5618 5616 5614 5614 5612 5610 5608 5606 5608 5610 5611 5610 5609 5609 5608 5607 5607 5605 5604 5602 5601 5600 5599 5598 5597 5596 5595 5593 5592 5590 5588 5585
5613 5613 5614 5614 5614 5614 5616 5615 5615 5614 5613 5612 5612 5610 5608 5606 5605 5603 5601 5600 5601 5602 5601 5601 5601 5601 5600 5599 5598 5596 5595 5594 5592 5591 5590 5589 5588 5586 5585 5584 5582 5581 5580 5577
5606 5606 5606 5606 5606 5607 5608 5608 5608 5607 5606 5605 5604 5603 5602 5600 5598 5595 5593 5594 5594 5594 5593 5593 5593 5593 5592 5591 5589 5588 5587 5585 5584 5582 5581 5580 5579 5577 5576 5575 5574 5573 5571 5569
5599 5599 5599 5599 5600 5600 5599 5600 5600 5600 5600 5599 5598 5597 5596 5593 5591 5590 5589 5588 5587 5586 5585 5584 5585 5584 5584 5582 5581 5580 5578 5577 5575 5574 5573 5572 5571 5570 5569 5568 5566 5565 5563 5561
5593 5593 5593 5593 5592 5592 5593 5594 5594 5593 5592 5592 5591 5591 5590 5588 5585 5585 5584 5583 5582 5581 5579 5578 5577 5576 5575 5573 5572 5571 5570 5569 5568 5567 5566 5564 5564 5563 5561 5560 5559 5557 5555 5553
5588 5587 5587 5588 5588 5588 5588 5587 5586 5586 5585 5584 5584 5583 5583 5582 5581 5579 5578 5577 5576 5574 5573 5571 5570 5569 5567 5567 5565 5564 5563 5563 5561 5560 5559 5558 5557 5556 5555 5554 5552 5550 5547 5545
5584 5584 5583 5583 5583 5583 5583 5581 5580 5580 5580 5579 5578 5577 5577 5576 5574 5572 5571 5569 5568 5567 5566 5564 5563 5561 5560 5559 5558 5557 5556 5555 5555 5553 5552 5551 5549 5548 5547 5546 5544 5542 5540 5537